Find Starlink 6331

NORAD ID: 57351 Int'l Des: 2023-099 Owner: SPXS Country: US Constellation: starlink operational
LEOCIRCULAR

Live Position

Loading 3D Globe...

About Starlink 6331

Description loading...

Upcoming Passes

Passes for default location (London). Set your location on the main map for personalized predictions.

Altitude History

Loading altitude history...

Two-Line Element Set

1 57351U 23099Z 26106.50522927 -.00000011 00000-0 91146-5 0 9990
2 57351 43.0029 35.0966 0000883 256.4531 103.6223 15.27575318151902
Epoch: Apr 16, 2026 • Age: 19 hours

Current Status

Altitude 486.7 km
Velocity 7.63 km/s
Sub-Earth Point 42.75°N, 155.67°E
Launch Date Jul 16, 2023
Age 2.7 years
Type internet

Technical Details

Classification Payload
Mass 305.00 kg
Dry Mass 290.00 kg
Total Mass 305.00 kg
Length 0.20 m
Diameter 2.80 m
Span 9.00 m
Shape Box + pan
Manufacturer SPXS
Bus Type Starlink
Phase Status In Orbit
Owner/State SPXS/US

Most Searched